Location: Lewisville
(33.0462°N, 96.9942°W)
Time: 11:25:39
(UTC-05:00)

X-37B - Pass Details

Date: 21 June 2021
Orbit: 381 x 393 km, 45.0° (Epoch: 29 August)

Event Time Altitude Azimuth Distance (km) Brightness Sun altitude
Rises 05:23:23 0° 304° (NW) 2,255 4.3 -10.7°
Reaches altitude 10° 05:25:28 10° 305° (NW) 1,398 3.2 -10.4°
Maximum altitude 05:28:36 86° 31° (NNE) 385 0.6 -9.9°
Drops below altitude 10° 05:31:44 10° 123° (ESE) 1,388 3.7 -9.3°
Sets 05:33:47 0° 124° (SE) 2,237 4.7 -9.0°
